FW3145 Weather Reports


Display with metric or nautical units.
time (UTC)temp
F
wind
direction
speed
MPH
gust
MPH
rain 1hr
in
rain 24hr
in
rain mn
in
humidity
%
barometer
mb
20260904021526 65 331 0.0 0.0 0.00 0.00 0.00 67 1015.3
20260904020024 64 332 0.0 0.0 0.00 0.00 0.00 67 1015.2
20260904014525 64 336 0.0 0.0 0.00 0.00 0.00 68 1015.2
20260904013030 64 34 0.0 0.0 0.00 0.00 0.00 71 1015.2
20260904011530 66 113 0.0 0.0 0.00 0.00 0.00 73 1015.3
20260904010024 67 115 0.0 0.0 0.00 0.00 0.00 73 1015.2
20260904004512 67 124 0.0 0.0 0.00 0.00 0.00 71 1015.4
20260904003009 69 339 0.0 0.0 0.00 0.00 0.00 69 1015.4
20260904001509 69 138 0.0 0.0 0.00 0.00 0.00 66 1015.4
20260904000007 69 342 0.0 0.0 0.00 0.00 0.00 68 1015.4
20260903234505 69 355 0.0 0.0 0.00 0.00 0.00 71 1015.3
20260903233004 69 335 0.0 0.0 0.00 0.00 0.00 74 1015.4
20260903231503 69 325 0.0 0.0 0.00 0.00 0.00 73 1015.4
20260903230107 70 342 0.0 0.0 0.00 0.00 0.00 73 1015.3
20260903224608 71 345 0.0 0.0 0.00 0.00 0.00 73 1015.3
20260903223054 71 346 0.0 0.0 0.00 0.00 0.00 72 1015.3
20260903221552 72 337 0.0 0.0 0.00 0.00 0.00 71 1015.2
20260903220104 73 349 0.0 0.0 0.00 0.00 0.00 70 1015.3
20260903214547 74 355 0.0 0.0 0.00 0.00 0.00 70 1015.2
20260903213046 74 323 0.0 0.0 0.00 0.00 0.00 70 1015.1
20260903211613 75 320 0.0 0.0 0.00 0.00 0.00 70 1015.1
20260903210044 75 320 0.0 0.0 0.00 0.00 0.00 69 1015.1
20260903204544 75 348 0.0 0.0 0.00 0.00 0.00 69 1014.9
20260903203043 76 344 0.0 0.0 0.00 0.00 0.00 69 1014.8
20260903201543 76 342 0.0 0.0 0.00 0.00 0.00 68 1014.8
20260903200042 76 342 0.0 0.0 0.00 0.00 0.00 68 1014.9
20260903194545 77 327 0.0 0.0 0.00 0.00 0.00 67 1014.7
20260903193041 78 331 0.0 0.0 0.00 0.00 0.00 64 1014.7
20260903191540 80 321 0.0 0.0 0.00 0.00 0.00 61 1014.5
20260903190039 81 355 0.0 0.0 0.00 0.00 0.00 58 1014.3
20260903184540 81 21 0.0 0.0 0.00 0.00 0.00 57 1014.2
20260903183039 81 22 0.0 0.0 0.00 0.00 0.00 57 1014.0
20260903181538 82 17 0.0 0.0 0.00 0.00 0.00 56 1013.9
20260903180038 82 42 0.0 0.0 0.00 0.00 0.00 54 1013.7
20260903174557 81 67 0.0 0.0 0.00 0.00 0.00 56 1013.5
20260903173040 82 321 0.0 0.0 0.00 0.00 0.00 56 1013.3
20260903171536 84 348 0.0 0.0 0.00 0.00 0.00 57 1013.1
20260903170058 86 10 0.0 0.0 0.00 0.00 0.00 53 1013.0
20260903164542 88 34 0.0 0.0 0.00 0.00 0.00 51 1013.1
20260903163034 89 271 0.0 0.0 0.00 0.00 0.00 53 1013.1
20260903161534 91 247 0.0 0.0 0.00 0.00 0.00 47 1013.1
20260903160034 92 252 0.0 0.0 0.00 0.00 0.00 46 1012.9
20260903154532 92 228 0.0 0.0 0.00 0.00 0.00 46 1013.0
20260903153032 93 286 0.0 0.0 0.00 0.00 0.00 41 1012.8
20260903151532 92 290 0.0 0.0 0.00 0.00 0.00 43 1012.6
20260903150030 91 290 0.0 0.0 0.00 0.00 0.00 44 1012.6
20260903144533 91 291 0.0 0.0 0.00 0.00 0.00 43 1012.5
20260903143028 90 291 0.0 0.0 0.00 0.00 0.00 46 1012.7
20260903141526 90 311 0.0 0.0 0.00 0.00 0.00 48 1012.8
20260903140026 90 311 0.0 0.0 0.00 0.00 0.00 49 1012.8
20260903134528 90 292 0.0 0.0 0.00 0.00 0.00 47 1012.9
20260903133024 91 277 0.0 0.0 0.00 0.00 0.00 42 1013.0
20260903131524 93 274 0.0 0.0 0.00 0.00 0.00 38 1013.0
20260903130020 92 222 0.0 0.0 0.00 0.00 0.00 40 1013.0
20260903124518 91 128 0.0 0.0 0.00 0.00 0.00 40 1013.2
20260903123017 91 147 0.0 0.0 0.00 0.00 0.00 40 1013.3
20260903121516 91 194 0.0 0.0 0.00 0.00 0.00 40 1013.5
20260903120021 91 338 0.0 0.0 0.00 0.00 0.00 43 1013.5
20260903114512 91 141 0.0 0.0 0.00 0.00 0.00 41 1013.5
20260903113009 90 174 0.0 0.0 0.00 0.00 0.00 41 1013.7
20260903111506 90 290 0.0 0.0 0.00 0.00 0.00 46 1013.8
20260903110001 89 153 0.0 0.0 0.00 0.00 0.00 46 1014.0
20260903104631 89 229 0.0 0.0 0.00 0.00 0.00 46 1014.0
20260903103056 88 259 0.0 0.0 0.00 0.00 0.00 53 1014.2
20260903101551 87 172 0.0 0.0 0.00 0.00 0.00 52 1014.4
20260903100046 86 189 0.0 0.0 0.00 0.00 0.00 56 1014.6
20260903094544 85 190 0.0 0.0 0.00 0.00 0.00 59 1014.8
20260903093043 84 153 0.0 0.0 0.00 0.00 0.00 64 1014.9
20260903091535 83 196 0.0 0.0 0.00 0.00 0.00 64 1015.0
20260903090032 82 184 0.0 0.0 0.00 0.00 0.00 66 1015.0
20260903084532 82 150 0.0 0.0 0.00 0.00 0.00 66 1015.0
20260903083022 81 146 0.0 0.0 0.00 0.00 0.00 69 1015.0
20260903081518 79 197 0.0 0.0 0.00 0.00 0.00 70 1014.9
20260903080014 79 140 0.0 0.0 0.00 0.00 0.00 70 1014.9
20260903074509 78 169 0.0 0.0 0.00 0.00 0.00 73 1014.8
20260903073014 76 160 0.0 0.0 0.00 0.00 0.00 74 1014.9
20260903071501 76 164 0.0 0.0 0.00 0.00 0.00 76 1014.9
20260903070100 75 163 0.0 0.0 0.00 0.00 0.00 77 1015.0
20260903064552 74 86 0.0 0.0 0.00 0.00 0.00 78 1014.9
20260903063053 73 67 0.0 0.0 0.00 0.00 0.00 79 1014.9
20260903061558 73 67 0.0 0.0 0.00 0.00 0.00 79 1015.0
20260903060043 72 345 0.0 0.0 0.00 0.00 0.00 80 1014.9
20260903054539 69 345 0.0 0.0 0.00 0.00 0.00 79 1014.8
20260903053035 67 345 0.0 0.0 0.00 0.00 0.00 79 1014.8
20260903051531 65 345 0.0 0.0 0.00 0.00 0.00 80 1014.8
20260903050027 65 345 0.0 0.0 0.00 0.00 0.00 80 1014.6
20260903044525 65 345 0.0 0.0 0.00 0.00 0.00 81 1014.5
20260903043023 65 345 0.0 0.0 0.00 0.00 0.00 81 1014.6
20260903041526 65 345 0.0 0.0 0.00 0.00 0.00 81 1014.4
20260903040020 66 345 0.0 0.0 0.00 0.00 0.00 81 1014.5
20260903034519 66 355 0.0 0.0 0.00 0.00 0.00 81 1014.4
20260903033016 67 355 0.0 0.0 0.00 0.00 0.00 80 1014.5
20260903031515 67 355 0.0 0.0 0.00 0.00 0.00 81 1014.6
20260903030018 67 355 0.0 0.0 0.00 0.00 0.00 81 1014.5
20260903024514 66 355 0.0 0.0 0.00 0.00 0.00 80 1014.5
20260903023012 67 355 0.0 0.0 0.00 0.00 0.00 81 1014.5